Flag Weather past 2 weeks in Port Said, Egypt

Now
63 °F

Passing clouds.


Feels Like: 63 °F
Forecast: 62 / 67 °F
Wind: 8 mph from Southwest

Location: Port Said Airport

Current Time: Nov 23, 2014 at 3:30:42 AM

Latest Report: Nov 23, 2014 at 3:00 AM


Visibility: N/A

Pressure: 30.04 "Hg

Humidity: 73%

Dew point: 54 °F

Location of Port SaidLocation

Historic Weather in Port Said — Graph

°F

Port Said temperature yesterday

Maximum temperature yesterday: 72 °F (at 1:00 PM)
Minimum temperature yesterday: 64 °F (at 5:00 AM)
Average temperature yesterday: 67 °F

Past Weeks' High & Low Weather Summary

 TemperatureHumidityPressure
High79 °F (Nov 8, 11:00 AM)94% (Nov 9, 6:00 PM)30.15 "Hg (Nov 9, 6:00 PM)
Low63 °F (Nov 16, 7:00 AM)30% (Nov 8, 10:00 AM)29.89 "Hg (Nov 14, 5:00 AM)
Average71 °F72%30.01 "Hg
* Reported Nov 8 2:00 AM — Nov 23 2:00 AM, Port Said, Weather by CustomWeather, © 2014

Note: Actual official high and low records may vary slightly from our data, if they occured in-between our weather recording intervals... More about our weather records

Advertising

Port Said weather history for previous 24 hours

 ConditionsComfort  
Time TempWeatherWind HumidityBarometerVisibility
2:00 AM
Nov 23
63 °FPassing clouds.9 mph68%30.04 "HgN/A
1:00 AM66 °FPassing clouds.9 mph56%30.04 "HgN/A
12:00 AM66 °FPassing clouds.12 mph56%30.07 "HgN/A
11:00 PM
Nov 22
66 °FPassing clouds.12 mph60%30.07 "HgN/A
10:00 PM68 °FPassing clouds.16 mph60%30.07 "HgN/A
9:00 PM68 °FPassing clouds.18 mph60%30.07 "HgN/A
8:00 PM68 °FPassing clouds.16 mph60%30.04 "HgN/A
7:00 PM68 °FPassing clouds.13 mph60%30.04 "HgN/A
6:00 PM68 °FPassing clouds.12 mph56%30.04 "HgN/A
5:00 PM68 °FPassing clouds.15 mph56%30.04 "HgN/A
4:00 PM70 °FScattered clouds.14 mph57%30.04 "HgN/A
3:00 PM70 °FScattered clouds.13 mph57%30.01 "HgN/A
2:00 PM70 °FScattered clouds.18 mph60%30.01 "HgN/A
1:00 PM72 °FScattered clouds.13 mph61%30.04 "HgN/A
12:00 PM68 °FScattered clouds.15 mph69%30.04 "HgN/A
11:00 AM70 °FScattered clouds.14 mph64%30.07 "HgN/A
10:00 AM68 °FScattered clouds.15 mph64%30.07 "HgN/A
9:00 AM66 °FScattered clouds.10 mph68%30.04 "HgN/A
8:00 AM64 °FScattered clouds.12 mph73%30.04 "HgN/A
7:00 AM64 °FScattered clouds.12 mph73%30.04 "HgN/A
6:00 AM64 °FPassing clouds.12 mph68%30.01 "HgN/A
5:00 AM64 °FPassing clouds.10 mph68%30.01 "HgN/A
4:00 AM66 °FClear.10 mph64%30.01 "Hg10 mi
3:00 AM66 °FClear.12 mph64%30.01 "Hg10 mi
Weather by CustomWeather, © 2014

See weather overviewHow to use our weather pages